Vertical_Velocity
-0 3 1 1 4 2 0 2 2 0 1 0 -1 -1 5 1 -0 0 1 1 2 3 -1 1 2 1 0 -2 1 2 -0 0 -1 -1 -1 2 -1 -0 -1 1 0 -0 -6 -2 -3 -1 -5 0 1 -1 1 1 2 2
-1 -0 -0 2 -1 1 1 -0 3 1 0 1 -1 -0 2 5 0 2 1 -0 0 -1 4 2 -1 -0 1 3 0 0 2 1 3 -1 -1 -3 -0 -2 0 0 -0 -0 -2 3 -3 1 4 2 2 0 1 2 1 2
1 -3 2 2 4 -1 1 2 2 2 2 0 -1 -0 2 4 3 0 1 2 2 0 0 -0 2 2 -1 1 1 -1 -0 -1 -1 -0 1 -1 -0 0 -0 1 -2 0 1 2 -1 3 2 2 2 4 4 1 2 0
2 -2 1 2 2 -1 1 1 1 2 2 1 -0 -0 0 3 4 3 0 1 1 3 -0 -1 1 1 1 0 0 -1 -0 1 1 0 -1 0 -1 -1 -1 -2 -1 -0 -0 7 2 -0 -0 2 3 0 2 1 -0 -1
1 -2 -0 0 2 4 1 3 -0 3 2 1 0 -0 1 2 2 2 1 -0 0 -1 4 -1 1 -2 0 -0 -0 1 -1 -2 -1 -1 1 -3 -3 -4 2 0 8 -1 -3 -1 1 -0 -1 2 -2 0 -0 -1 -1 -2
3 -2 0 1 2 1 3 1 -1 1 2 2 1 1 0 1 1 1 1 1 1 2 3 1 2 -2 -1 1 -0 0 1 1 1 -0 -0 -2 -1 -4 -2 6 1 -0 2 -0 3 1 -0 -3 -0 0 -1 -3 -1 -1
7 -3 3 5 5 2 3 -0 -1 2 -0 3 2 1 0 -1 0 -0 2 3 -0 2 2 -2 -2 -0 2 0 -2 -3 -1 -2 -1 -1 -3 0 -1 -3 -2 5 -9 -3 1 -0 -0 -1 -2 -2 -2 -1 1 1 1 1
3 3 6 8 8 7 3 -0 -1 2 2 2 1 1 1 -1 0 2 2 1 -0 1 1 2 -1 3 4 4 3 3 1 1 1 1 1 -0 1 -0 1 -1 2 -1 -1 -0 1 2 1 -0 0 -1 -2 -1 -2 -4
8 11 7 -5 13 8 5 -1 0 1 4 2 1 -1 -0 -1 1 -0 1 0 -1 -2 -3 2 5 4 1 1 -1 -1 -3 -2 -1 0 0 -2 5 0 -4 3 -1 1 -0 1 2 1 1 -0 0 -0 -0 -1 -0 1
7 4 8 6 10 -1 3 3 2 3 2 1 1 -2 1 1 -0 3 -0 1 -1 -2 1 -2 -1 1 1 3 3 -1 1 -3 -4 2 -2 0 6 -13 -4 -1 1 -2 3 2 1 0 -1 -4 -2 -1 -1 -1 -0 -1
6 6 -2 9 14 11 7 3 4 4 -2 -4 2 1 1 5 -1 -2 -6 -1 -1 -1 1 3 -1 1 1 -1 -0 -1 1 -4 -2 3 -2 3 2 -5 1 -4 -3 -0 -0 -4 -3 -2 -1 1 0 -2 -3 -2 -1 -0
7 8 -0 6 13 9 3 6 8 0 -3 15 7 8 1 5 3 -5 -6 -8 4 -3 3 3 3 1 -1 -0 1 1 -2 -2 -4 2 -2 1 3 -1 -4 -1 -0 -2 -3 -1 1 1 -1 -3 -2 -1 -1 -1 -1 -1
7 9 10 4 8 10 8 4 18 -3 -1 3 6 -2 6 -2 -14 -11 -1 1 9 15 9 7 3 0 -5 -1 1 -5 -4 -4 2 -5 -3 4 -1 -2 0 1 0 -1 1 4 0 -3 -2 -1 -2 -1 -2 -3 -2 -2
7 8 9 7 7 9 7 10 7 -2 3 5 0 -5 3 -12 -21 -1 13 3 6 7 -1 -0 -2 -2 2 2 -2 1 -1 0 -5 -2 2 -2 -1 -0 -2 -3 1 4 -0 -1 1 -0 -3 -2 -2 -2 -0 1 -0 -3
5 5 10 10 8 6 5 13 4 -7 9 3 1 -10 -3 -7 1 3 3 4 5 4 3 2 1 -1 0 -2 4 2 3 -6 -1 -1 -1 -1 -1 -3 -0 2 1 -3 -3 -2 -1 -2 -1 1 3 2 0 -1 -3 -1
5 7 7 9 7 6 9 11 -2 18 9 1 -8 -13 2 2 3 10 7 2 6 6 3 0 1 -1 5 -5 0 -1 -2 -3 -2 -0 3 0 -1 2 6 2 -1 -2 -1 -1 -3 -2 -2 -5 -3 -1 -3 -1 2 1
1 3 5 5 6 9 6 7 7 11 16 -14 -14 7 0 6 1 1 2 4 6 -2 1 -0 1 2 1 -7 -4 -0 -6 -3 -3 -2 2 1 2 1 2 1 -2 -0 1 -0 -1 -3 0 -2 -1 -0 0 -2 2 -1
3 2 2 6 8 3 4 8 5 6 -2 -18 -5 1 -0 7 1 2 6 2 1 7 0 2 5 2 -3 -3 2 -5 -8 -5 -2 -0 -2 -3 -1 -1 -1 1 -0 -1 -2 -3 -2 -0 -0 -1 -1 -3 -1 -2 -2 -2
1 5 6 5 5 6 9 8 4 -0 -6 -1 -1 -2 -1 5 2 1 -0 0 3 2 0 3 0 1 3 -3 -8 -2 -3 -0 -0 -4 -3 -3 -6 -3 -2 -2 -2 -3 -2 -1 -1 -2 -2 -3 -3 -3 -1 0 -1 -2
1 1 4 2 4 7 3 6 8 2 -5 -6 -0 -2 2 6 2 2 3 4 1 3 1 5 5 5 -8 -6 -3 2 5 -0 -5 -2 0 -6 -5 -1 -2 -3 -3 -2 -0 -1 -2 -3 -3 -2 0 -1 -2 -1 -2 -1
1 4 4 2 3 5 6 3 10 -1 -2 -3 -1 2 -1 2 1 3 7 3 0 5 10 13 -5 -11 -4 -0 3 3 -0 -1 -2 0 2 4 -6 -2 -1 -2 -1 -0 -1 -2 -2 -3 -2 -1 -0 -1 -1 -0 -0 -0
3 2 5 9 8 4 1 2 10 4 1 -1 1 0 3 2 -0 -1 -1 -2 9 9 9 5 -2 -1 -6 -2 -4 -5 -3 -0 -0 -2 1 6 5 2 0 -1 -1 -1 -2 -4 -4 -3 -2 -2 -3 -4 -3 -1 1 2
2 3 3 6 4 5 5 -1 6 6 4 2 2 5 3 1 -2 -1 -2 1 8 10 5 0 -8 -6 -3 -3 -2 -2 -1 0 1 3 2 1 2 2 1 2 -0 -1 -1 -2 -1 0 -1 -2 -3 -2 -1 0 0 1
2 0 3 5 1 6 5 1 1 3 1 -1 3 1 2 5 6 5 1 4 4 1 -3 -4 -4 -4 -2 -2 -1 0 -1 -1 1 1 1 -1 -2 -1 1 -0 -2 -2 -1 -1 -1 -1 -1 -1 -1 0 -1 -1 -1 -1
0 0 -0 2 -1 -1 5 2 3 4 7 8 8 -1 2 8 4 -0 1 7 -0 -6 -5 -4 -0 3 -0 -3 -3 -0 3 4 1 -1 -0 -0 0 1 -0 -1 -2 -4 -4 -4 -3 -0 -0 -1 -2 -2 -1 -2 0 1
2 -0 -2 3 4 1 1 4 3 3 6 9 7 2 3 -0 -2 -8 7 7 -5 -5 -2 -2 -1 -4 -3 -1 0 -0 1 0 -1 -0 0 -1 -2 -2 -3 -2 -3 -4 -3 -2 -0 0 -1 -2 -1 -0 -3 -2 -0 2
1 4 6 6 2 2 3 2 0 2 1 -2 0 1 -1 -1 1 3 8 -0 -6 1 0 -2 -2 0 -0 -1 -0 -0 -0 -1 -2 -3 -4 -4 -3 -2 -2 -2 -2 -2 -2 -2 -2 -0 1 -1 -1 -0 -1 -4 -1 0
0 1 3 1 -0 -2 -1 -1 -2 -4 -3 1 2 1 -1 -0 -0 -0 1 -0 -4 -5 0 2 0 -2 -4 -4 -1 -3 -4 -3 -2 -4 -4 -3 -3 -3 -3 -0 1 -1 -1 -1 -1 -1 -3 -3 -1 -1 0 -0 -3 -6
2 1 -1 -0 -2 -4 -1 0 -0 -1 -2 -4 -4 -3 -1 1 -3 -3 -0 2 2 -1 -2 -3 -5 -5 -5 -5 -5 -3 -2 -3 -4 -3 -3 -2 -2 -1 -1 -0 -1 -2 -3 -3 -2 -0 1 -0 -1 -1 -2 -1 -1 -3
-5 -4 -1 0 1 0 -1 -2 -1 -3 -2 -2 -2 -3 -2 -3 -4 -2 -2 -2 -2 -2 -3 -3 -2 -4 -2 -2 -2 -3 -3 -3 -2 -2 -1 -1 -2 -1 0 -1 -2 -2 -0 0 -0 -0 -0 -1 -1 -1 -1 -1 1 0
1 2 0 -3 -2 -2 -2 -3 -3 -3 -2 0 -1 -1 -1 -2 -1 0 1 1 -1 -2 -2 -1 -1 -0 -1 -1 -2 -1 -1 0 -0 -0 -1 -2 -1 0 1 1 1 1 0 -0 -1 -1 -1 -1 0 -1 -3 -3 -3 -0
-1 -2 -2 1 2 1 1 1 -0 1 -0 1 0 1 1 -1 -1 0 2 -0 1 0 -0 -0 -0 1 -0 1 0 0 0 0 -0 -1 -1 -1 -0 -0 -1 -2 -0 0 -0 -1 -0 0 0 -1 -2 -2 -2 -1 -1 -1
-1 -1 -1 -2 -2 -1 -1 -0 -0 -1 -1 -1 -1 -1 -0 -0 -1 4 1 -2 -1 -0 0 0 0 0 1 1 0 0 0 -0 -0 0 -0 -1 -2 0 1 0 -0 -1 0 0 -1 -0 -1 -2 -1 1 1 -0 -1 -1
Height
5496 5506 5515 5525 5535 5544 5553 5560 5566 5572 5577 5582 5588 5591 5593 5598 5601 5603 5607 5612 5618 5622 5626 5629 5633 5636 5640 5643 5645 5648 5651 5653 5655 5657 5660 5663 5666 5668 5671 5673 5675 5677 5679 5681 5682 5684 5687 5689 5690 5691 5692 5692 5691 5691
5484 5496 5505 5515 5525 5535 5544 5551 5557 5564 5569 5574 5580 5585 5587 5592 5595 5599 5602 5607 5612 5617 5622 5626 5630 5634 5637 5641 5644 5646 5649 5651 5654 5656 5658 5661 5663 5666 5667 5668 5670 5672 5674 5676 5678 5680 5682 5683 5684 5684 5684 5683 5682 5681
5474 5486 5496 5506 5516 5525 5534 5542 5549 5556 5562 5566 5572 5578 5581 5586 5590 5594 5597 5601 5605 5611 5615 5620 5624 5629 5633 5636 5639 5642 5644 5647 5649 5651 5654 5656 5658 5660 5661 5663 5665 5666 5668 5670 5672 5675 5675 5676 5677 5677 5676 5675 5673 5671
5465 5476 5487 5498 5507 5516 5525 5533 5540 5548 5554 5559 5564 5570 5575 5579 5584 5588 5591 5594 5599 5603 5607 5613 5617 5621 5625 5629 5632 5636 5638 5640 5643 5645 5648 5651 5653 5655 5657 5658 5660 5661 5662 5665 5666 5666 5667 5668 5668 5667 5666 5665 5663 5660
5455 5469 5480 5490 5499 5508 5516 5524 5531 5539 5546 5552 5557 5562 5567 5573 5577 5580 5584 5588 5592 5597 5601 5604 5608 5613 5616 5621 5625 5628 5631 5633 5635 5638 5641 5644 5646 5648 5650 5651 5653 5653 5654 5656 5657 5658 5657 5658 5658 5657 5655 5653 5650 5647
5447 5460 5472 5483 5492 5500 5507 5515 5522 5530 5538 5544 5550 5555 5559 5564 5569 5573 5578 5581 5585 5589 5595 5598 5602 5605 5609 5613 5616 5619 5622 5624 5627 5630 5633 5635 5637 5638 5641 5644 5643 5645 5647 5648 5650 5649 5647 5647 5647 5645 5642 5640 5637 5632
5438 5450 5464 5475 5484 5492 5499 5505 5513 5521 5529 5536 5542 5547 5552 5556 5561 5566 5572 5576 5578 5582 5586 5590 5594 5598 5602 5606 5609 5612 5614 5616 5619 5621 5624 5627 5628 5629 5632 5636 5631 5637 5639 5640 5640 5639 5638 5636 5633 5630 5628 5624 5621 5616
5430 5445 5455 5466 5475 5482 5490 5497 5505 5512 5520 5527 5533 5539 5544 5548 5553 5558 5563 5567 5570 5574 5577 5582 5588 5592 5595 5598 5601 5603 5605 5607 5610 5614 5616 5617 5619 5620 5624 5624 5624 5628 5629 5628 5627 5627 5626 5624 5622 5619 5616 5612 5607 5602
5422 5435 5446 5455 5466 5473 5482 5489 5497 5503 5511 5517 5524 5530 5535 5540 5545 5550 5554 5557 5562 5568 5571 5577 5582 5585 5586 5590 5592 5595 5596 5598 5601 5604 5607 5609 5611 5612 5613 5616 5617 5617 5617 5616 5615 5614 5614 5612 5609 5606 5601 5596 5591 5587
5411 5423 5435 5447 5457 5465 5473 5481 5488 5495 5501 5507 5515 5521 5527 5532 5536 5541 5544 5549 5553 5557 5563 5569 5572 5576 5579 5581 5583 5586 5587 5588 5590 5595 5595 5598 5603 5601 5601 5603 5606 5606 5605 5604 5603 5601 5599 5597 5592 5588 5584 5580 5576 5572
5401 5413 5425 5437 5447 5457 5465 5471 5480 5486 5491 5498 5505 5512 5518 5522 5526 5531 5534 5538 5543 5549 5555 5561 5564 5567 5569 5572 5574 5575 5576 5576 5578 5583 5584 5588 5592 5591 5589 5591 5592 5591 5590 5589 5589 5587 5583 5579 5575 5572 5568 5565 5561 5556
5391 5402 5414 5427 5438 5448 5456 5463 5471 5477 5482 5492 5498 5503 5508 5512 5516 5521 5525 5530 5535 5541 5547 5553 5555 5557 5559 5561 5563 5565 5565 5567 5567 5573 5573 5575 5581 5579 5579 5579 5579 5578 5577 5575 5572 5570 5567 5564 5561 5558 5555 5551 5547 5542
5380 5392 5403 5415 5426 5437 5444 5452 5459 5465 5472 5479 5485 5490 5497 5501 5505 5511 5517 5524 5530 5536 5539 5541 5544 5545 5546 5550 5552 5553 5554 5555 5558 5559 5561 5565 5566 5566 5567 5567 5567 5565 5564 5562 5560 5557 5554 5551 5548 5544 5541 5537 5534 5530
5370 5381 5392 5403 5414 5424 5433 5441 5447 5453 5461 5467 5473 5478 5485 5491 5497 5502 5510 5516 5520 5523 5525 5528 5532 5536 5537 5539 5540 5542 5544 5546 5545 5547 5550 5552 5554 5555 5555 5555 5555 5554 5552 5550 5548 5546 5542 5539 5535 5532 5528 5524 5519 5515
5362 5371 5381 5391 5401 5412 5421 5428 5431 5440 5449 5454 5460 5467 5476 5482 5488 5493 5500 5505 5509 5512 5514 5517 5520 5524 5526 5527 5531 5533 5534 5534 5536 5539 5540 5542 5543 5543 5544 5545 5543 5541 5539 5537 5534 5531 5528 5525 5522 5518 5514 5510 5505 5500
5353 5362 5371 5380 5389 5399 5407 5412 5420 5432 5435 5440 5448 5459 5467 5473 5478 5483 5490 5495 5498 5501 5504 5507 5509 5512 5516 5518 5522 5524 5525 5526 5529 5531 5532 5532 5532 5532 5532 5531 5530 5528 5526 5523 5520 5517 5514 5510 5507 5502 5497 5493 5487 5481
5343 5352 5361 5370 5378 5386 5393 5401 5409 5416 5419 5424 5439 5450 5456 5463 5468 5472 5477 5483 5487 5490 5494 5496 5499 5501 5505 5508 5512 5515 5516 5518 5519 5520 5521 5522 5521 5521 5520 5518 5516 5514 5512 5509 5506 5502 5498 5494 5490 5485 5480 5476 5470 5464
5335 5343 5351 5359 5367 5374 5382 5389 5395 5400 5404 5415 5428 5438 5445 5453 5458 5462 5467 5471 5477 5480 5482 5486 5489 5491 5494 5497 5500 5503 5504 5507 5509 5510 5510 5510 5509 5508 5506 5504 5502 5500 5498 5494 5491 5488 5483 5479 5475 5471 5466 5459 5454 5447
5325 5334 5341 5349 5357 5366 5373 5379 5383 5386 5393 5406 5415 5425 5432 5439 5445 5450 5455 5459 5463 5467 5471 5474 5477 5479 5482 5485 5488 5490 5492 5495 5497 5499 5498 5497 5497 5496 5494 5492 5490 5487 5484 5480 5477 5473 5469 5465 5460 5455 5449 5443 5436 5429
5314 5323 5331 5339 5346 5353 5359 5366 5371 5376 5384 5394 5403 5411 5418 5425 5432 5438 5442 5447 5451 5455 5458 5462 5465 5467 5471 5475 5476 5478 5481 5484 5486 5486 5484 5482 5483 5482 5481 5479 5476 5472 5469 5465 5462 5459 5454 5450 5445 5439 5433 5426 5418 5411
5306 5314 5323 5330 5336 5343 5347 5352 5360 5365 5373 5383 5391 5398 5404 5410 5417 5423 5428 5432 5438 5442 5445 5448 5449 5455 5458 5461 5465 5468 5470 5471 5471 5472 5472 5469 5468 5467 5466 5464 5460 5457 5454 5451 5447 5443 5439 5433 5427 5421 5414 5407 5400 5394
5299 5306 5314 5321 5327 5331 5337 5345 5352 5357 5364 5371 5379 5385 5391 5397 5402 5407 5412 5418 5424 5428 5431 5432 5434 5438 5444 5450 5453 5455 5456 5458 5458 5458 5458 5456 5454 5452 5450 5448 5445 5442 5438 5435 5430 5425 5419 5414 5408 5403 5396 5391 5385 5380
5294 5300 5306 5312 5318 5324 5330 5336 5342 5348 5354 5360 5368 5373 5378 5384 5390 5394 5398 5405 5411 5415 5416 5415 5417 5424 5429 5433 5436 5439 5441 5441 5441 5442 5442 5442 5440 5437 5435 5432 5429 5426 5421 5417 5412 5407 5402 5396 5390 5385 5381 5377 5372 5367
5288 5293 5299 5305 5310 5316 5321 5326 5334 5341 5346 5352 5356 5362 5367 5373 5378 5381 5387 5393 5396 5398 5399 5402 5407 5411 5414 5417 5420 5423 5425 5427 5427 5427 5426 5425 5424 5422 5419 5417 5413 5410 5405 5400 5395 5390 5384 5379 5375 5371 5368 5364 5360 5354
5285 5289 5293 5298 5303 5310 5316 5321 5328 5333 5338 5343 5348 5351 5356 5361 5365 5370 5379 5381 5381 5383 5387 5390 5394 5397 5400 5402 5406 5409 5411 5412 5412 5412 5412 5411 5409 5406 5404 5400 5395 5391 5387 5382 5378 5373 5369 5365 5362 5358 5355 5351 5347 5341
5281 5284 5289 5294 5299 5305 5310 5315 5320 5324 5329 5332 5337 5340 5346 5349 5354 5361 5366 5366 5367 5373 5376 5379 5382 5385 5388 5392 5394 5396 5397 5398 5399 5399 5397 5395 5392 5389 5386 5381 5377 5374 5370 5366 5363 5359 5357 5353 5350 5346 5342 5339 5335 5329
5279 5281 5284 5288 5292 5296 5301 5305 5310 5314 5318 5322 5327 5331 5335 5341 5346 5351 5352 5353 5357 5361 5364 5368 5372 5375 5378 5381 5382 5384 5384 5384 5383 5381 5379 5377 5375 5372 5369 5365 5362 5359 5356 5353 5351 5349 5345 5342 5338 5334 5329 5324 5320 5314
5276 5277 5279 5281 5284 5288 5292 5297 5301 5306 5311 5315 5320 5323 5327 5333 5337 5339 5341 5344 5346 5351 5355 5358 5360 5362 5365 5367 5368 5368 5368 5367 5366 5365 5363 5361 5358 5355 5353 5351 5349 5347 5345 5343 5340 5337 5334 5330 5326 5322 5317 5311 5304 5298
5275 5275 5276 5278 5279 5281 5284 5289 5292 5296 5301 5305 5310 5314 5320 5323 5325 5329 5332 5334 5337 5340 5343 5345 5348 5350 5351 5353 5353 5353 5353 5352 5351 5349 5347 5345 5343 5342 5341 5339 5338 5336 5333 5331 5328 5325 5321 5317 5313 5308 5303 5297 5290 5282
5270 5271 5272 5274 5275 5277 5279 5282 5285 5288 5292 5296 5301 5306 5310 5314 5317 5321 5323 5325 5327 5329 5331 5333 5335 5336 5337 5337 5337 5337 5337 5336 5336 5335 5334 5334 5332 5331 5329 5328 5327 5324 5322 5319 5315 5312 5308 5304 5299 5294 5288 5282 5275 5268
5269 5268 5269 5269 5271 5272 5273 5275 5278 5281 5285 5288 5292 5296 5299 5302 5305 5308 5311 5313 5315 5316 5318 5319 5320 5321 5322 5323 5323 5324 5325 5325 5325 5325 5324 5323 5322 5320 5319 5317 5315 5312 5310 5307 5303 5299 5294 5290 5285 5279 5272 5266 5260 5256
5269 5269 5268 5269 5269 5270 5271 5273 5275 5277 5279 5282 5285 5288 5291 5293 5295 5298 5300 5302 5303 5305 5307 5308 5309 5311 5312 5313 5315 5316 5316 5316 5316 5315 5314 5313 5311 5310 5308 5306 5303 5301 5298 5294 5290 5285 5281 5276 5271 5264 5260 5256 5252 5247
5270 5270 5270 5269 5270 5270 5271 5272 5273 5275 5277 5279 5281 5283 5285 5287 5289 5292 5293 5294 5296 5297 5300 5302 5304 5305 5306 5307 5308 5308 5308 5307 5306 5305 5304 5303 5301 5299 5297 5295 5292 5288 5285 5281 5277 5272 5268 5263 5260 5256 5253 5249 5244 5240